This is the latest recevied weather packets stored in our database for station/object NEWPRT. If no packets are shown the sender has not sent any weather packets the latest 10 day(s).
| Time | Temp. | Humidity | Pressure | Rain* | Wind** | Luminosity | Snow |
|---|---|---|---|---|---|---|---|
| 1777850464 | - | 27% | 1011.1 hPa | 0 mm | - | - | - |
| 1777850141 | - | 28% | 1010.9 hPa | 0 mm | - | - | - |
| 1777849819 | - | 26% | 1011.1 hPa | 0 mm | - | - | - |
| 1777849495 | - | 26% | 1011 hPa | 0 mm | - | - | - |
| 1777849172 | - | 24% | 1011.2 hPa | 0 mm | - | - | - |
| 1777848849 | - | 23% | 1011.4 hPa | 0 mm | - | - | - |
| 1777848526 | - | 20% | 1011.4 hPa | 0 mm | - | - | - |
| 1777848255 | - | 18% | 1011.3 hPa | 0 mm | - | - | - |
| 1777848203 | - | 18% | 1011.3 hPa | 0 mm | - | - | - |
| 1777847880 | - | 18% | 1011.2 hPa | 0 mm | - | - | - |
| 1777847557 | - | 14% | 1011.2 hPa | 0 mm | - | - | - |
| 1777847234 | - | 18% | 1011.3 hPa | 0 mm | - | - | - |
| 1777846911 | - | 21% | 1011.5 hPa | 0 mm | - | - | - |
| 1777846588 | - | 22% | 1011.5 hPa | 0 mm | - | - | - |
| 1777846265 | - | 22% | 1011.8 hPa | 0 mm | - | - | - |
| 1777845942 | - | 22% | 1011.9 hPa | 0 mm | - | - | - |
| 1777845619 | - | 22% | 1011.8 hPa | 0 mm | - | - | - |
| 1777845296 | - | 20% | 1012.1 hPa | 0 mm | - | - | - |
| 1777844973 | - | 23% | 1012.1 hPa | 0 mm | - | - | - |
| 1777844650 | - | 23% | 1012 hPa | 0 mm | - | - | - |
| 1777844327 | - | 22% | 1012.2 hPa | 0 mm | - | - | - |
| 1777844004 | - | 24% | 1012.2 hPa | 0 mm | - | - | - |
| 1777843682 | - | 23% | 1012.2 hPa | 0 mm | - | - | - |
| 1777843357 | - | 23% | 1012.3 hPa | 0 mm | - | - | - |
| 1777843035 | - | 23% | 1012.3 hPa | 0 mm | - | - | - |
* Rain latest hour (hover to see other rain measurements)
** Current wind speed in m/s (hover to see current wind gust speed)